Time,TemperatureF,DewpointF,PressureIn,WindDirection,WindDirectionDegrees,WindSpeedMPH,WindSpeedGustMPH,Humidity,HourlyPrecipIn,Conditions,Clouds,dailyrainin,SoftwareType,DateUTC
2013-04-22 00:03:00,44.0,33.0,30.63,SSW,207,0.0,26.0,64,0.00,,,0.00,,2013-04-22 04:03:00,
2013-04-22 00:12:00,44.0,33.0,30.63,SSW,207,0.0,26.0,64,0.00,,,0.00,,2013-04-22 04:12:00,
2013-04-22 00:23:00,44.0,31.0,30.62,SSW,196,0.0,26.0,61,0.00,,,0.00,,2013-04-22 04:23:00,
2013-04-22 00:33:00,44.0,32.0,30.63,SE,141,0.0,5.0,63,0.00,,,0.00,,2013-04-22 04:33:00,
2013-04-22 00:43:00,44.0,32.0,30.63,SE,141,0.0,5.0,63,0.00,,,0.00,,2013-04-22 04:43:00,
2013-04-22 00:52:00,44.0,32.0,30.63,SE,141,0.0,5.0,63,0.00,,,0.00,,2013-04-22 04:52:00,
2013-04-22 01:03:00,44.0,32.0,30.63,ESE,123,0.0,5.0,63,0.00,,,0.00,,2013-04-22 05:03:00,
2013-04-22 01:12:00,44.0,33.0,30.63,ESE,112,0.0,5.0,65,0.00,,,0.00,,2013-04-22 05:12:00,
2013-04-22 01:22:00,44.0,33.0,30.63,ESE,112,0.0,5.0,65,0.00,,,0.00,,2013-04-22 05:22:00,
2013-04-22 01:32:00,43.0,32.0,30.63,ESE,113,0.0,5.0,65,0.00,,,0.00,,2013-04-22 05:32:00,
2013-04-22 01:42:00,43.0,32.0,30.63,ESE,113,0.0,5.0,65,0.00,,,0.00,,2013-04-22 05:42:00,
2013-04-22 01:52:00,43.0,32.0,30.63,ESE,117,1.0,5.0,64,0.00,,,0.00,,2013-04-22 05:52:00,
2013-04-22 02:02:00,43.0,32.0,30.63,SE,138,1.0,5.0,65,0.00,,,0.00,,2013-04-22 06:02:00,
2013-04-22 02:12:00,43.0,32.0,30.63,SE,138,1.0,5.0,65,0.00,,,0.00,,2013-04-22 06:12:00,
2013-04-22 02:21:00,43.0,32.0,30.63,SE,124,1.0,5.0,65,0.00,,,0.00,,2013-04-22 06:21:00,
2013-04-22 02:32:00,43.0,32.0,30.63,East,85,1.0,5.0,64,0.00,,,0.00,,2013-04-22 06:32:00,
2013-04-22 02:42:00,43.0,32.0,30.63,East,85,1.0,5.0,64,0.00,,,0.00,,2013-04-22 06:42:00,
2013-04-22 02:52:00,43.0,32.0,30.63,East,85,1.0,5.0,64,0.00,,,0.00,,2013-04-22 06:52:00,
2013-04-22 03:01:00,42.0,31.0,30.63,ESE,107,2.0,5.0,65,0.00,,,0.00,,2013-04-22 07:01:00,
2013-04-22 03:12:00,42.0,31.0,30.63,ESE,107,2.0,5.0,65,0.00,,,0.00,,2013-04-22 07:12:00,
2013-04-22 03:22:00,42.0,32.0,30.63,ESE,109,1.0,5.0,67,0.00,,,0.00,,2013-04-22 07:22:00,
2013-04-22 03:32:00,42.0,32.0,30.63,East,97,1.0,5.0,67,0.00,,,0.00,,2013-04-22 07:32:00,
2013-04-22 03:42:00,42.0,32.0,30.63,East,97,1.0,5.0,67,0.00,,,0.00,,2013-04-22 07:42:00,
2013-04-22 03:52:00,42.0,32.0,30.63,East,79,1.0,5.0,68,0.00,,,0.00,,2013-04-22 07:52:00,
2013-04-22 04:02:00,42.0,32.0,30.62,ENE,70,1.0,5.0,67,0.00,,,0.00,,2013-04-22 08:02:00,
2013-04-22 04:11:00,41.0,31.0,30.62,ENE,71,1.0,5.0,68,0.00,,,0.00,,2013-04-22 08:11:00,
2013-04-22 04:22:00,41.0,31.0,30.62,ENE,71,1.0,5.0,68,0.00,,,0.00,,2013-04-22 08:22:00,
2013-04-22 04:32:00,41.0,32.0,30.63,NE,35,0.0,5.0,71,0.00,,,0.00,,2013-04-22 08:32:00,
2013-04-22 04:42:00,41.0,32.0,30.63,NE,35,0.0,5.0,71,0.00,,,0.00,,2013-04-22 08:42:00,
2013-04-22 04:52:00,40.0,32.0,30.63,NE,35,0.0,5.0,72,0.00,,,0.00,,2013-04-22 08:52:00,
2013-04-22 05:01:00,39.0,32.0,30.63,NE,35,0.0,5.0,75,0.00,,,0.00,,2013-04-22 09:01:00,
2013-04-22 05:11:00,38.0,31.0,30.63,NE,35,0.0,5.0,77,0.00,,,0.00,,2013-04-22 09:11:00,
2013-04-22 05:21:00,38.0,31.0,30.63,NE,35,0.0,5.0,77,0.00,,,0.00,,2013-04-22 09:21:00,
2013-04-22 05:33:00,38.0,32.0,30.63,NE,35,0.0,5.0,79,0.00,,,0.00,,2013-04-22 09:33:00,
2013-04-22 05:42:00,38.0,32.0,30.63,NE,35,0.0,5.0,79,0.00,,,0.00,,2013-04-22 09:42:00,
2013-04-22 05:52:00,38.0,32.0,30.63,NE,35,1.0,5.0,80,0.00,,,0.00,,2013-04-22 09:52:00,
2013-04-22 06:03:00,38.0,33.0,30.64,NNE,28,0.0,5.0,82,0.00,,,0.00,,2013-04-22 10:03:00,
2013-04-22 06:12:00,38.0,33.0,30.64,NNE,28,0.0,5.0,82,0.00,,,0.00,,2013-04-22 10:12:00,
2013-04-22 06:22:00,37.0,32.0,30.64,NNE,26,1.0,5.0,82,0.00,,,0.00,,2013-04-22 10:22:00,
2013-04-22 06:32:00,37.0,32.0,30.64,NNE,20,1.0,5.0,82,0.00,,,0.00,,2013-04-22 10:32:00,
2013-04-22 06:42:00,37.0,32.0,30.64,NNE,20,1.0,5.0,82,0.00,,,0.00,,2013-04-22 10:42:00,
2013-04-22 06:52:00,37.0,32.0,30.64,NNE,20,1.0,5.0,82,0.00,,,0.00,,2013-04-22 10:52:00,
2013-04-22 07:02:00,38.0,33.0,30.64,NNE,19,2.0,5.0,81,0.00,,,0.00,,2013-04-22 11:02:00,
2013-04-22 07:12:00,40.0,34.0,30.65,ENE,63,1.0,5.0,78,0.00,,,0.00,,2013-04-22 11:12:00,
2013-04-22 07:22:00,40.0,34.0,30.65,ENE,63,1.0,5.0,78,0.00,,,0.00,,2013-04-22 11:22:00,
2013-04-22 07:32:00,41.0,33.0,30.65,ENE,61,3.0,10.0,73,0.00,,,0.00,,2013-04-22 11:32:00,
2013-04-22 07:42:00,41.0,33.0,30.65,ENE,61,3.0,10.0,73,0.00,,,0.00,,2013-04-22 11:42:00,
2013-04-22 07:52:00,42.0,33.0,30.65,ENE,61,3.0,12.0,70,0.00,,,0.00,,2013-04-22 11:52:00,
2013-04-22 08:02:00,43.0,32.0,30.65,East,86,3.0,12.0,66,0.00,,,0.00,,2013-04-22 12:02:00,
2013-04-22 08:12:00,44.0,31.0,30.64,ENE,75,7.0,14.0,59,0.00,,,0.00,,2013-04-22 12:12:00,
2013-04-22 08:21:00,44.0,31.0,30.64,ENE,75,7.0,14.0,59,0.00,,,0.00,,2013-04-22 12:21:00,
2013-04-22 08:32:00,45.0,29.0,30.64,East,96,9.0,15.0,53,0.00,,,0.00,,2013-04-22 12:32:00,
2013-04-22 08:42:00,45.0,29.0,30.64,East,96,9.0,15.0,53,0.00,,,0.00,,2013-04-22 12:42:00,
2013-04-22 08:52:00,45.0,28.0,30.65,East,86,6.0,15.0,52,0.00,,,0.00,,2013-04-22 12:52:00,
2013-04-22 09:01:00,45.0,28.0,30.65,East,86,6.0,15.0,52,0.00,,,0.00,,2013-04-22 13:01:00,
2013-04-22 09:11:00,45.0,28.0,30.65,East,86,6.0,15.0,52,0.00,,,0.00,,2013-04-22 13:11:00,
2013-04-22 09:22:00,46.0,30.0,30.66,ENE,71,10.0,17.0,53,0.00,,,0.00,,2013-04-22 13:22:00,
2013-04-22 09:32:00,46.0,30.0,30.67,East,92,10.0,21.0,54,0.00,,,0.00,,2013-04-22 13:32:00,
2013-04-22 09:42:00,46.0,30.0,30.67,East,92,10.0,21.0,54,0.00,,,0.00,,2013-04-22 13:42:00,
2013-04-22 09:52:00,46.0,31.0,30.67,ESE,109,8.0,21.0,56,0.00,,,0.00,,2013-04-22 13:52:00,
2013-04-22 10:02:00,46.0,31.0,30.67,ESE,109,8.0,21.0,56,0.00,,,0.00,,2013-04-22 14:02:00,
2013-04-22 10:11:00,46.0,31.0,30.66,East,93,13.0,21.0,56,0.00,,,0.00,,2013-04-22 14:11:00,
2013-04-22 10:21:00,46.0,31.0,30.66,East,93,13.0,21.0,56,0.00,,,0.00,,2013-04-22 14:21:00,
2013-04-22 10:33:00,46.0,31.0,30.66,East,93,13.0,21.0,56,0.00,,,0.00,,2013-04-22 14:33:00,
2013-04-22 10:42:00,46.0,31.0,30.66,East,93,13.0,21.0,56,0.00,,,0.00,,2013-04-22 14:42:00,
2013-04-22 10:52:00,47.0,31.0,30.66,East,94,9.0,21.0,53,0.00,,,0.00,,2013-04-22 14:52:00,
2013-04-22 11:02:00,47.0,31.0,30.66,East,98,8.0,21.0,53,0.00,,,0.00,,2013-04-22 15:02:00,
2013-04-22 11:12:00,47.0,31.0,30.66,East,98,8.0,21.0,53,0.00,,,0.00,,2013-04-22 15:12:00,
2013-04-22 11:22:00,47.0,30.0,30.66,NE,54,8.0,24.0,52,0.00,,,0.00,,2013-04-22 15:22:00,
2013-04-22 11:33:00,47.0,31.0,30.66,East,100,12.0,24.0,53,0.00,,,0.00,,2013-04-22 15:33:00,
2013-04-22 11:43:00,47.0,31.0,30.66,East,100,12.0,24.0,53,0.00,,,0.00,,2013-04-22 15:43:00,
2013-04-22 11:53:00,47.0,30.0,30.66,ENE,69,12.0,24.0,51,0.00,,,0.00,,2013-04-22 15:53:00,
2013-04-22 12:03:00,47.0,30.0,30.65,ENE,72,9.0,24.0,51,0.00,,,0.00,,2013-04-22 16:03:00,
2013-04-22 12:12:00,47.0,30.0,30.65,ENE,72,9.0,24.0,51,0.00,,,0.00,,2013-04-22 16:12:00,
2013-04-22 12:23:00,48.0,32.0,30.66,East,80,8.0,26.0,54,0.00,,,0.00,,2013-04-22 16:23:00,
2013-04-22 12:33:00,48.0,32.0,30.64,ENE,70,10.0,26.0,54,0.00,,,0.00,,2013-04-22 16:33:00,
2013-04-22 12:42:00,48.0,32.0,30.64,ENE,70,10.0,26.0,54,0.00,,,0.00,,2013-04-22 16:42:00,
2013-04-22 12:52:00,48.0,33.0,30.63,ENE,76,9.0,26.0,55,0.00,,,0.00,,2013-04-22 16:52:00,
2013-04-22 13:02:00,48.0,34.0,30.63,East,88,13.0,26.0,58,0.00,,,0.00,,2013-04-22 17:02:00,
2013-04-22 13:12:00,48.0,34.0,30.63,East,88,13.0,26.0,58,0.00,,,0.00,,2013-04-22 17:12:00,
2013-04-22 13:22:00,48.0,32.0,30.63,ESE,121,12.0,26.0,53,0.00,,,0.00,,2013-04-22 17:22:00,
2013-04-22 13:32:00,49.0,34.0,30.62,ESE,111,9.0,26.0,55,0.00,,,0.00,,2013-04-22 17:32:00,
2013-04-22 13:42:00,49.0,34.0,30.62,ESE,111,9.0,26.0,55,0.00,,,0.00,,2013-04-22 17:42:00,
2013-04-22 13:52:00,50.0,35.0,30.62,East,97,6.0,26.0,56,0.00,,,0.00,,2013-04-22 17:52:00,
2013-04-22 14:01:00,50.0,34.0,30.61,ENE,65,7.0,26.0,53,0.00,,,0.00,,2013-04-22 18:01:00,
2013-04-22 14:12:00,50.0,34.0,30.61,ENE,65,7.0,26.0,53,0.00,,,0.00,,2013-04-22 18:12:00,
2013-04-22 14:22:00,50.0,34.0,30.60,East,83,6.0,26.0,54,0.00,,,0.00,,2013-04-22 18:22:00,
2013-04-22 14:32:00,50.0,34.0,30.59,ESE,103,8.0,26.0,53,0.00,,,0.00,,2013-04-22 18:32:00,
2013-04-22 14:42:00,50.0,34.0,30.59,ESE,103,8.0,26.0,53,0.00,,,0.00,,2013-04-22 18:42:00,
2013-04-22 14:52:00,50.0,33.0,30.59,ESE,114,8.0,26.0,52,0.00,,,0.00,,2013-04-22 18:52:00,
2013-04-22 15:01:00,50.0,33.0,30.59,East,99,8.0,26.0,51,0.00,,,0.00,,2013-04-22 19:01:00,
2013-04-22 15:12:00,50.0,33.0,30.59,East,99,8.0,26.0,51,0.00,,,0.00,,2013-04-22 19:12:00,
2013-04-22 15:22:00,50.0,36.0,30.58,East,94,8.0,26.0,58,0.00,,,0.00,,2013-04-22 19:22:00,
2013-04-22 15:32:00,50.0,35.0,30.58,ESE,113,6.0,26.0,57,0.00,,,0.00,,2013-04-22 19:32:00,
2013-04-22 15:42:00,50.0,35.0,30.58,ESE,113,6.0,26.0,57,0.00,,,0.00,,2013-04-22 19:42:00,
2013-04-22 15:53:00,50.0,35.0,30.58,East,92,9.0,26.0,56,0.00,,,0.00,,2013-04-22 19:53:00,
2013-04-22 16:02:00,50.0,34.0,30.57,ENE,78,6.0,26.0,54,0.00,,,0.00,,2013-04-22 20:02:00,
2013-04-22 16:11:00,50.0,34.0,30.57,ENE,78,6.0,26.0,54,0.00,,,0.00,,2013-04-22 20:11:00,
2013-04-22 16:22:00,50.0,31.0,30.56,ESE,109,6.0,26.0,48,0.00,,,0.00,,2013-04-22 20:22:00,
2013-04-22 16:32:00,50.0,29.0,30.55,ENE,77,9.0,26.0,44,0.00,,,0.00,,2013-04-22 20:32:00,
2013-04-22 16:42:00,50.0,29.0,30.55,ENE,77,9.0,26.0,44,0.00,,,0.00,,2013-04-22 20:42:00,
2013-04-22 16:52:00,51.0,31.0,30.55,ESE,108,7.0,26.0,47,0.00,,,0.00,,2013-04-22 20:52:00,
2013-04-22 17:02:00,50.0,31.0,30.55,ENE,76,8.0,26.0,48,0.00,,,0.00,,2013-04-22 21:02:00,
2013-04-22 17:12:00,50.0,31.0,30.55,ENE,76,8.0,26.0,48,0.00,,,0.00,,2013-04-22 21:12:00,
2013-04-22 17:21:00,50.0,31.0,30.55,ENE,76,8.0,26.0,48,0.00,,,0.00,,2013-04-22 21:21:00,
2013-04-22 17:32:00,50.0,33.0,30.55,East,91,6.0,26.0,52,0.00,,,0.00,,2013-04-22 21:32:00,
2013-04-22 17:43:00,50.0,33.0,30.55,East,91,6.0,26.0,52,0.00,,,0.00,,2013-04-22 21:43:00,
2013-04-22 17:53:00,49.0,33.0,30.54,East,84,8.0,26.0,54,0.00,,,0.00,,2013-04-22 21:53:00,
2013-04-22 18:03:00,49.0,32.0,30.54,East,84,7.0,26.0,52,0.00,,,0.00,,2013-04-22 22:03:00,
2013-04-22 18:12:00,49.0,32.0,30.54,East,84,7.0,26.0,52,0.00,,,0.00,,2013-04-22 22:12:00,
2013-04-22 18:22:00,49.0,34.0,30.54,East,87,9.0,26.0,55,0.00,,,0.00,,2013-04-22 22:22:00,
2013-04-22 18:33:00,49.0,34.0,30.54,East,92,6.0,26.0,57,0.00,,,0.00,,2013-04-22 22:33:00,
2013-04-22 18:42:00,49.0,34.0,30.54,East,92,6.0,26.0,57,0.00,,,0.00,,2013-04-22 22:42:00,
2013-04-22 18:52:00,49.0,34.0,30.54,East,92,6.0,26.0,57,0.00,,,0.00,,2013-04-22 22:52:00,
2013-04-22 19:02:00,48.0,34.0,30.53,ESE,106,7.0,26.0,57,0.00,,,0.00,,2013-04-22 23:02:00,
2013-04-22 19:11:00,48.0,35.0,30.53,East,97,7.0,26.0,60,0.00,,,0.00,,2013-04-22 23:11:00,
2013-04-22 19:22:00,48.0,35.0,30.53,East,97,7.0,26.0,60,0.00,,,0.00,,2013-04-22 23:22:00,
2013-04-22 19:33:00,48.0,35.0,30.53,ENE,68,5.0,26.0,61,0.00,,,0.00,,2013-04-22 23:33:00,
2013-04-22 19:42:00,48.0,35.0,30.53,ENE,68,5.0,26.0,61,0.00,,,0.00,,2013-04-22 23:42:00,
2013-04-22 19:52:00,47.0,37.0,30.53,ESE,113,9.0,26.0,67,0.00,,,0.00,,2013-04-22 23:52:00,
2013-04-22 20:02:00,47.0,37.0,30.53,ESE,113,9.0,26.0,67,0.00,,,0.00,,2013-04-23 00:02:00,
2013-04-22 20:12:00,47.0,37.0,30.53,ESE,113,9.0,26.0,67,0.00,,,0.00,,2013-04-23 00:12:00,
2013-04-22 20:21:00,46.0,39.0,30.53,East,99,7.0,26.0,77,0.00,,,0.00,,2013-04-23 00:21:00,
2013-04-22 20:32:00,45.0,39.0,30.53,ENE,67,7.0,26.0,78,0.00,,,0.00,,2013-04-23 00:32:00,
2013-04-22 20:42:00,45.0,39.0,30.53,ENE,67,7.0,26.0,78,0.00,,,0.00,,2013-04-23 00:42:00,
2013-04-22 20:52:00,45.0,38.0,30.53,ESE,104,13.0,26.0,75,0.00,,,0.00,,2013-04-23 00:52:00,
2013-04-22 21:01:00,45.0,38.0,30.53,NE,48,10.0,26.0,75,0.00,,,0.00,,2013-04-23 01:01:00,
2013-04-22 21:11:00,45.0,38.0,30.53,NE,48,10.0,26.0,75,0.00,,,0.00,,2013-04-23 01:11:00,
2013-04-22 21:21:00,45.0,38.0,30.53,ESE,104,7.0,26.0,77,0.00,,,0.00,,2013-04-23 01:21:00,
2013-04-22 21:32:00,45.0,37.0,30.53,East,95,10.0,26.0,73,0.00,,,0.00,,2013-04-23 01:32:00,
2013-04-22 21:42:00,45.0,37.0,30.53,East,95,10.0,26.0,73,0.00,,,0.00,,2013-04-23 01:42:00,
2013-04-22 21:52:00,44.0,36.0,30.53,NE,55,7.0,26.0,72,0.00,,,0.00,,2013-04-23 01:52:00,
2013-04-22 22:02:00,44.0,36.0,30.52,ESE,110,8.0,26.0,72,0.00,,,0.00,,2013-04-23 02:02:00,
2013-04-22 22:12:00,44.0,36.0,30.52,ESE,110,8.0,26.0,72,0.00,,,0.00,,2013-04-23 02:12:00,
2013-04-22 22:21:00,44.0,36.0,30.52,East,98,8.0,26.0,73,0.00,,,0.00,,2013-04-23 02:21:00,
2013-04-22 22:32:00,44.0,35.0,30.53,ENE,76,7.0,26.0,71,0.00,,,0.00,,2013-04-23 02:32:00,
2013-04-22 22:42:00,44.0,35.0,30.53,ENE,76,7.0,26.0,71,0.00,,,0.00,,2013-04-23 02:42:00,
2013-04-22 22:52:00,44.0,35.0,30.53,ENE,76,7.0,26.0,71,0.00,,,0.00,,2013-04-23 02:52:00,
2013-04-22 23:01:00,44.0,35.0,30.53,ENE,76,7.0,26.0,71,0.00,,,0.00,,2013-04-23 03:01:00,
2013-04-22 23:10:00,44.0,35.0,30.53,ENE,76,7.0,26.0,71,0.00,,,0.00,,2013-04-23 03:10:00,
2013-04-22 23:11:00,44.0,35.0,30.53,ENE,76,7.0,26.0,71,0.00,,,0.00,,2013-04-23 03:11:00,
2013-04-22 23:21:00,44.0,35.0,30.53,ENE,76,7.0,26.0,71,0.00,,,0.00,,2013-04-23 03:21:00,
2013-04-22 23:33:00,44.0,35.0,30.53,ENE,76,7.0,26.0,71,0.00,,,0.00,,2013-04-23 03:33:00,
2013-04-22 23:43:00,44.0,35.0,30.53,ENE,76,7.0,26.0,71,0.00,,,0.00,,2013-04-23 03:43:00,
2013-04-22 23:53:00,44.0,35.0,30.53,ENE,76,7.0,26.0,71,0.00,,,0.00,,2013-04-23 03:53:00,